This is the latest recevied weather packets stored in our database for station/object W4DHW-4. If no packets are shown the sender has not sent any weather packets the latest 10 day(s).
| Time | Temp. | Humidity | Pressure | Rain* | Wind** | Luminosity | Snow |
|---|---|---|---|---|---|---|---|
| 1778097127 | 22.22° C | 74% | 1010.1 hPa | 0 mm | - | 338 W/m² | - |
| 1778096825 | 22.22° C | 74% | 1009.8 hPa | 0 mm | - | 319 W/m² | - |
| 1778096521 | 22.22° C | 73% | 1009.7 hPa | 0 mm | - | 374 W/m² | - |
| 1778096218 | 21.67° C | 74% | 1010.1 hPa | 0 mm | - | 410 W/m² | - |
| 1778095915 | 22.22° C | 73% | 1009.7 hPa | 0 mm | - | 471 W/m² | - |
| 1778095612 | 21.67° C | 75% | 1010 hPa | 0 mm | - | 487 W/m² | - |
| 1778095308 | 22.22° C | 74% | 1010.1 hPa | 0 mm | - | 498 W/m² | - |
| 1778095005 | 21.67° C | 75% | 1010.1 hPa | 0 mm | - | 594 W/m² | - |
| 1778094701 | 21.67° C | 74% | 1010.1 hPa | 0 mm | - | 514 W/m² | - |
| 1778094399 | 21.67° C | 75% | 1010.3 hPa | 0 mm | - | 592 W/m² | - |
| 1778094095 | 21.11° C | 75% | 1010.3 hPa | 0 mm | - | 445 W/m² | - |
| 1778093793 | 21.11° C | 76% | 1010.3 hPa | 0 mm | - | 431 W/m² | - |
| 1778093489 | 20.56° C | 77% | 1010.4 hPa | 0 mm | - | 355 W/m² | - |
| 1778093186 | 20.56° C | 76% | 1010.4 hPa | 0 mm | - | 277 W/m² | - |
| 1778092883 | 20.56° C | 76% | 1010.7 hPa | 0 mm | - | 275 W/m² | - |
| 1778092580 | 20.56° C | 76% | 1010.5 hPa | 0 mm | - | 255 W/m² | - |
| 1778092276 | 20.56° C | 76% | 1010.7 hPa | 0 mm | - | 223 W/m² | - |
| 1778091974 | 20.56° C | 77% | 1010.4 hPa | 0 mm | - | 222 W/m² | - |
| 1778091670 | 20.56° C | 76% | 1010.5 hPa | 0 mm | - | 216 W/m² | - |
| 1778091369 | 20.56° C | 76% | 1010.5 hPa | 0 mm | - | 232 W/m² | - |
| 1778091065 | 20.56° C | 75% | 1010.8 hPa | 0 mm | - | 200 W/m² | - |
| 1778090762 | 20.56° C | 75% | 1010.3 hPa | 0 mm | - | 186 W/m² | - |
| 1778090458 | 20.56° C | 76% | 1010.9 hPa | 0 mm | - | 204 W/m² | - |
| 1778090154 | 20.56° C | 76% | 1010.6 hPa | 0 mm | - | 213 W/m² | - |
| 1778089851 | 20.56° C | 76% | 1010.8 hPa | 0 mm | - | 235 W/m² | - |
* Rain latest hour (hover to see other rain measurements)
** Current wind speed in m/s (hover to see current wind gust speed)